Theta_e
320 320 320 320 320 320 320 319 318 318 320 320 321 324 320 322 323 322 324 324 326 326 324 325 324 325 325 325 325 325 325 324 324
319 318 317 317 317 317 318 318 317 317 317 317 317 317 318 317 321 323 323 324 325 324 324 325 324 324 324 323 323 324 323 323 323
315 315 316 316 316 316 317 315 315 315 315 313 311 312 312 315 316 319 320 322 324 324 323 323 323 323 322 322 322 322 322 321 321
314 314 314 315 315 315 315 315 312 310 307 307 307 308 307 311 308 312 320 321 320 321 321 321 321 321 321 321 321 321 320 320 320
313 313 313 312 312 313 314 313 303 302 301 305 307 306 307 307 307 306 314 317 318 319 320 320 321 321 320 320 320 320 319 319 319
311 309 310 312 312 307 304 303 305 307 306 306 306 306 306 307 307 306 305 315 316 316 316 317 319 319 319 320 320 320 319 319 320
309 309 306 303 303 304 306 306 307 307 307 307 306 306 306 306 306 306 305 306 315 316 315 315 316 317 318 319 319 319 319 319 319
310 309 306 305 306 308 308 308 307 307 307 307 307 307 307 307 307 307 307 306 306 315 317 316 317 317 317 318 319 319 319 320 320
309 308 307 307 307 308 308 308 308 308 308 308 308 308 308 308 308 308 308 309 305 310 315 316 317 318 318 319 319 319 319 319 320
310 309 308 308 307 308 308 308 308 308 309 309 308 308 309 309 309 309 309 309 308 308 315 316 316 318 318 318 319 319 319 319 320
311 309 309 308 307 307 308 308 309 309 309 309 309 309 309 309 309 310 309 309 309 307 314 315 316 317 317 317 317 317 318 318 318
309 310 310 309 308 308 308 308 308 309 310 311 311 311 311 310 310 310 310 310 308 306 308 313 314 315 316 316 316 316 316 317 317
310 311 311 310 309 309 308 308 309 310 311 312 312 312 311 311 311 310 310 309 308 306 305 306 306 308 310 311 312 314 315 316 317
310 311 311 310 310 310 310 309 310 310 311 311 312 311 311 311 311 310 308 308 307 308 308 308 307 306 307 309 309 310 313 315 315
310 311 311 311 310 310 310 309 310 310 311 311 311 311 312 310 310 309 308 307 307 308 310 309 309 309 309 309 309 310 312 314 315
312 311 311 311 311 311 311 310 310 310 311 312 313 313 310 309 309 309 309 308 307 308 310 310 309 309 309 309 308 308 311 312 313
314 313 312 312 311 311 311 310 310 311 311 312 312 309 309 309 309 309 309 310 307 310 310 310 310 309 309 308 308 307 306 306 308
315 315 314 313 312 311 311 311 311 312 311 312 312 310 310 307 309 309 309 310 309 309 310 311 310 310 309 308 308 307 306 305 305
316 315 315 315 313 312 311 311 311 311 311 312 312 312 312 308 311 310 309 310 309 309 309 310 310 310 309 308 307 307 306 305 305
317 316 316 315 314 312 311 311 311 311 311 311 313 312 311 310 309 309 310 310 310 309 309 309 309 310 310 308 307 306 306 305 305
Wind_Speed
9 9 10 11 11 12 13 13 12 12 12 14 16 15 14 18 19 18 18 18 16 18 17 17 17 17 16 16 16 15 16 15 15
8 8 8 9 9 10 10 10 9 10 10 11 13 12 13 15 16 19 18 16 15 15 14 16 15 16 16 15 16 15 14 13 14
7 7 7 7 9 8 9 8 8 8 9 9 11 11 11 12 14 14 15 13 13 14 13 13 14 14 14 14 14 13 13 13 13
7 6 6 6 7 6 6 6 6 8 8 10 10 9 9 10 10 11 12 10 10 10 11 12 12 12 12 12 12 12 12 12 12
6 6 5 4 4 4 4 4 8 9 8 10 8 8 6 6 7 8 9 8 8 9 9 9 10 10 10 10 10 10 10 10 10
7 3 3 2 2 4 5 6 7 6 7 8 7 6 5 5 5 5 6 7 7 7 8 8 8 8 8 8 8 8 8 8 8
5 3 1 1 3 5 6 6 5 3 4 5 4 4 4 3 4 3 4 4 6 6 6 6 7 6 6 6 6 7 6 6 6
6 4 3 4 4 5 5 4 3 3 3 4 3 3 3 2 2 2 2 2 3 6 5 5 5 4 4 4 4 4 3 3 4
7 5 6 5 5 4 4 3 3 3 2 3 2 2 1 1 2 2 2 1 2 5 6 6 5 4 3 2 2 2 2 2 3
9 8 8 7 6 5 4 3 3 4 3 3 3 4 3 4 4 3 3 2 3 6 7 7 5 4 3 2 1 0 1 2 3
13 12 10 8 7 5 5 5 5 6 5 5 5 4 4 5 5 4 4 5 4 7 8 7 6 5 4 3 1 0 1 2 3
16 13 12 10 9 8 8 7 7 6 6 5 5 6 7 8 7 7 7 7 7 7 8 8 7 6 5 4 2 1 0 1 2
18 16 14 12 11 11 9 9 8 7 7 6 6 5 6 8 8 8 8 9 9 8 8 7 7 6 5 4 3 2 1 0 2
19 18 15 14 13 12 10 10 9 8 8 7 7 7 7 8 10 10 9 10 10 9 8 6 7 7 6 4 3 3 2 1 1
20 19 16 16 16 14 13 12 11 10 8 9 9 8 8 9 11 11 9 10 11 10 8 7 8 7 6 5 4 3 3 2 1
22 21 20 19 19 16 14 13 12 12 10 8 6 7 9 10 13 14 11 11 12 11 9 7 7 7 7 6 4 3 3 1 1
24 24 24 23 21 19 18 16 15 13 10 5 2 1 5 13 15 17 15 13 15 13 10 8 8 8 7 7 5 3 2 1 1
28 27 25 25 24 23 21 20 19 16 12 16 5 1 4 1 11 18 17 14 17 17 12 10 9 9 9 8 7 5 3 1 1
29 30 29 27 27 27 25 23 22 20 19 13 20 17 4 2 3 9 19 18 19 20 17 13 12 12 11 10 9 7 5 3 2
32 32 32 30 29 30 28 26 26 25 24 21 8 17 16 11 3 3 4 16 21 21 22 19 17 16 14 13 11 9 7 5 4
Wind_Direction
106 102 98 96 96 90 85 84 89 91 92 83 80 89 91 106 102 95 90 90 93 84 85 86 85 85 84 82 78 77 70 64 60
113 109 110 107 98 91 86 86 87 90 90 86 85 92 95 101 113 106 95 92 93 90 91 86 86 85 83 83 81 76 74 69 64
120 118 115 110 104 99 91 90 88 87 102 106 103 97 104 102 96 98 93 92 92 92 95 91 92 89 86 84 81 80 75 70 62
124 125 118 112 108 104 95 90 96 100 113 123 117 112 106 108 92 101 105 101 101 101 98 96 94 92 90 86 84 80 77 71 66
152 141 132 128 117 108 107 113 107 104 112 122 117 121 122 109 107 101 113 112 112 110 106 102 100 94 93 88 86 80 76 70 66
164 133 142 165 154 126 114 113 118 106 100 116 122 114 131 118 120 103 102 132 126 121 113 105 98 96 94 92 85 80 72 68 64
169 156 197 174 151 121 117 120 119 116 116 138 131 133 144 129 126 116 95 122 150 146 127 117 110 104 102 95 88 83 76 72 66
206 205 213 197 188 166 155 150 138 145 134 132 128 135 140 156 168 153 120 69 160 165 161 155 139 131 115 106 93 80 64 42 36
201 210 221 213 207 191 191 177 174 182 214 230 175 182 196 202 200 186 181 275 210 183 178 174 170 165 157 133 108 83 47 29 17
215 225 230 227 223 217 212 216 211 213 240 221 223 230 237 236 240 233 216 220 223 193 192 186 180 176 170 160 155 93 347 336 339
230 228 228 232 228 229 225 229 232 236 232 223 236 226 231 232 237 242 230 218 211 192 196 188 183 178 177 171 165 190 7 343 339
221 224 228 229 229 227 227 230 237 236 238 233 232 254 244 237 239 241 230 217 198 184 182 186 180 176 171 163 161 179 328 336 341
222 222 226 225 226 226 230 234 238 243 248 247 246 255 243 232 233 232 226 212 192 174 164 167 170 168 168 170 178 175 183 327 347
220 222 225 224 227 225 235 235 241 250 250 257 258 258 245 232 234 224 221 199 186 174 160 165 167 164 167 171 172 154 133 103 64
223 226 227 226 227 228 235 237 240 251 259 263 260 255 238 239 219 208 211 202 187 177 168 159 168 173 172 158 144 137 120 106 80
229 229 230 231 232 234 237 238 240 249 252 263 260 236 236 232 220 220 223 213 195 191 187 179 178 179 186 178 165 156 134 113 59
234 234 235 234 233 231 232 234 236 240 236 225 195 314 254 237 228 225 228 220 210 206 204 201 202 199 199 191 193 195 183 339 325
237 238 240 238 236 235 233 234 233 235 233 223 214 96 239 281 219 224 228 228 223 217 217 214 218 216 209 203 205 211 227 284 286
239 239 241 243 240 239 238 238 238 237 239 237 237 241 268 213 319 238 231 231 232 224 223 223 228 224 217 213 214 219 232 266 277
239 240 240 244 243 243 241 238 237 238 241 234 231 231 236 244 200 279 260 234 234 229 229 231 233 225 222 219 220 224 233 259 266